TimeCST,TemperatureF,Dew PointF,Humidity,Sea Level PressureIn,VisibilityMPH,Wind Direction,Wind SpeedMPH,Gust SpeedMPH,PrecipitationIn,Events,Conditions,WindDirDegrees,DateUTC
1:52 AM,39.0,30.0,70,29.91,10.0,NNW,17.3,23.0,N/A,,Overcast,330,2013-03-05 07:52:00
2:52 AM,37.9,30.0,73,29.93,10.0,NNW,16.1,-,N/A,,Overcast,330,2013-03-05 08:52:00
3:17 AM,37.0,32.0,82,29.94,9.0,NW,17.3,26.5,0.00,Rain,Light Rain,320,2013-03-05 09:17:00
3:52 AM,36.0,33.1,89,29.96,6.0,NW,13.8,-,0.00,Rain,Rain,310,2013-03-05 09:52:00
4:06 AM,35.1,32.0,89,29.97,4.0,NW,12.7,21.9,0.01,Snow,Light Snow,310,2013-03-05 10:06:00
4:10 AM,34.0,32.0,92,29.97,2.5,NW,11.5,21.9,0.01,Snow,Light Snow,310,2013-03-05 10:10:00
4:26 AM,34.0,33.1,96,29.97,3.0,WNW,11.5,-,0.02,Snow,Light Snow,300,2013-03-05 10:26:00
4:36 AM,34.0,33.1,96,29.98,2.5,NW,13.8,-,0.02,Snow,Light Snow,310,2013-03-05 10:36:00
4:39 AM,34.0,33.1,96,29.98,3.0,NW,16.1,20.7,0.02,Snow,Light Snow,310,2013-03-05 10:39:00
4:52 AM,35.1,33.1,92,30.00,5.0,NW,15.0,-,0.02,Rain,Light Rain,310,2013-03-05 10:52:00
5:01 AM,35.1,33.1,92,30.00,6.0,NW,19.6,26.5,0.00,Rain,Light Rain,320,2013-03-05 11:01:00
5:52 AM,35.1,32.0,89,30.02,3.0,NW,24.2,32.2,0.00,Snow,Light Snow,310,2013-03-05 11:52:00
5:59 AM,34.0,32.0,92,30.02,1.8,NW,23.0,32.2,0.00,Snow,Light Snow,320,2013-03-05 11:59:00
6:12 AM,34.0,32.0,92,30.02,2.5,NNW,18.4,32.2,0.01,Snow,Light Snow,330,2013-03-05 12:12:00
6:22 AM,34.0,30.9,89,30.03,4.0,NW,19.6,29.9,0.01,Snow,Light Snow,320,2013-03-05 12:22:00
6:42 AM,33.1,30.0,89,30.04,8.0,NW,18.4,29.9,0.01,,Overcast,320,2013-03-05 12:42:00
6:50 AM,33.8,30.2,87,30.03,7.0,NW,17.3,26.5,0.01,,Overcast,320,2013-03-05 12:50:00
6:52 AM,33.1,30.0,89,30.05,7.0,NW,17.3,26.5,0.01,,Overcast,320,2013-03-05 12:52:00
7:52 AM,34.0,30.0,85,30.06,8.0,NW,12.7,-,N/A,,Mostly Cloudy,310,2013-03-05 13:52:00
8:52 AM,34.0,21.0,59,30.10,10.0,WNW,21.9,34.5,N/A,,Partly Cloudy,300,2013-03-05 14:52:00
9:52 AM,34.0,21.9,61,30.12,10.0,WNW,17.3,28.8,N/A,,Scattered Clouds,300,2013-03-05 15:52:00
10:52 AM,35.1,19.0,52,30.15,10.0,WNW,17.3,29.9,N/A,,Scattered Clouds,300,2013-03-05 16:52:00
11:52 AM,36.0,18.0,48,30.16,10.0,WNW,18.4,36.8,N/A,,Partly Cloudy,300,2013-03-05 17:52:00
12:52 PM,37.0,19.9,50,30.16,10.0,WNW,24.2,32.2,N/A,,Partly Cloudy,300,2013-03-05 18:52:00
1:52 PM,39.0,19.9,46,30.16,10.0,WNW,24.2,36.8,N/A,,Scattered Clouds,290,2013-03-05 19:52:00
2:52 PM,39.9,21.0,47,30.17,10.0,WNW,21.9,34.5,N/A,,Scattered Clouds,290,2013-03-05 20:52:00
3:52 PM,37.9,21.0,51,30.19,10.0,WNW,16.1,28.8,N/A,,Mostly Cloudy,300,2013-03-05 21:52:00
4:52 PM,37.9,21.0,51,30.19,10.0,NW,17.3,28.8,N/A,,Mostly Cloudy,310,2013-03-05 22:52:00
5:52 PM,36.0,21.0,55,30.22,10.0,NW,19.6,31.1,N/A,,Partly Cloudy,320,2013-03-05 23:52:00
6:52 PM,36.0,21.0,55,30.23,10.0,NW,19.6,27.6,N/A,,Mostly Cloudy,310,2013-03-06 00:52:00
7:52 PM,32.0,21.0,64,30.25,10.0,NW,17.3,-,N/A,,Clear,320,2013-03-06 01:52:00
8:52 PM,30.9,19.9,64,30.27,10.0,NW,12.7,-,N/A,,Clear,320,2013-03-06 02:52:00
9:52 PM,30.0,19.9,66,30.30,10.0,NW,10.4,-,N/A,,Clear,320,2013-03-06 03:52:00
10:52 PM,28.9,19.9,69,30.30,10.0,NW,13.8,-,N/A,,Clear,320,2013-03-06 04:52:00
11:52 PM,30.0,19.0,64,30.30,10.0,NW,19.6,25.3,N/A,,Overcast,310,2013-03-06 05:52:00